Torna al catalogo

IRIDIUM 115

AttivoComunicazioniPO
NORAD 42806·PAYLOAD·🇺🇸 United States

Lanciato Jun 25, 2017 da Vandenberg Space Force Base

Loading…

Prossimi Passaggi (prossime 24 ore)

TLE

AggiornatoSource: CelesTrak SupGP

Epoca: Sep 14, 2026, 22:08 UTC

1 42806C 17039D   26257.92256944  .00003331  00000+0  99164-3 0  2571
2 42806  86.4446 284.5817 0002437  88.8133  18.0880 14.43277596    10

Traccia IRIDIUM 115 in tempo reale con AllMySat

Download on the App Store